Weather History for Nuiqsut, AK

Change the Weather History Date:

Saturday, November 17, 2012

  Actual Average (PAKU) Record (PAKU)
Temperature  
Mean Temperature -8 °F -  
Max Temperature 0 °F 4 °F 28 °F (2010)
Min Temperature -17 °F -1 °F -35 °F (1991)
Degree Days  
Heating Degree Days 74    
Moisture  
Dew Point -9 °F    
Average Humidity 86    
Maximum Humidity 100    
Minimum Humidity 78    
Precipitation  
Precipitation 0.00 in - - ()
Sea Level Pressure  
Sea Level Pressure 30.33 in    
Wind  
Wind Speed 6 mph (SSW)    
Max Wind Speed 12 mph    
Max Gust Speed -    
Visibility 3 miles    
Events Snow    
Averages and records for this station are not official NWS values.
T = Trace of Precipitation, MM = Missing Value Source: NWS Daily Summary

Daily Weather History Graph

Daily Weather History Graph

Search for Another Location

Airport:

Trip Planner

Search our weather history database for the weather conditions in past years. The results will help you decide how hot, cold, wet, or windy it might be!

Date:

Astronomy

Nov. 17, 2012 Rise Set
Actual Time 11:19 AM AKST 2:18 PM AKST
Civil Twilight 9:28 AM AKST 4:08 PM AKST
Nautical Twilight 8:03 AM AKST 5:33 PM AKST
Astronomical Twilight 6:49 AM AKST 6:47 PM AKST
Moon 2:52 PM AKST (11/17) 7:08 PM AKST (11/17)
Length of Visible Light 6h 39m
Length of Day
2h 58m
Waxing Crescent, 21% of the Moon is Illuminated
Nov 17
Waxing Crescent
Nov 20
First Quarter
Nov 28
Full
Dec 6
Last Quarter
Dec 12
New

Hourly Weather History & Observations

Time (AKST) Temp. Windchill Dew Point Humidity Pressure Visibility Wind Dir Wind Speed Gust Speed Precip Events Conditions
12:53 AM -17.0 °F - -20.0 °F 86% 30.45 in 0.8 mi Calm Calm - N/A   Overcast
1:20 AM -16.6 °F - -18.4 °F 92% 30.44 in 1.0 mi Calm Calm - N/A   Overcast
1:50 AM -16.6 °F - -16.6 °F 100% 30.43 in 0.8 mi Calm Calm - N/A   Overcast
1:53 AM -16.1 °F - -17.0 °F 96% 30.43 in 0.8 mi Calm Calm - N/A   Overcast
3:53 AM -16.1 °F -28.6 °F -18.9 °F 87% 30.42 in 0.8 mi SSW 4.6 mph - N/A   Mist
5:42 AM -11.2 °F - -13.0 °F 92% 30.40 in 8.0 mi Calm Calm - N/A   Overcast
5:53 AM -11.0 °F -22.8 °F -13.0 °F 91% 30.40 in 6.0 mi SSW 4.6 mph - 0.00 in Snow Light Snow
6:53 AM -7.1 °F -21.4 °F -9.9 °F 87% 30.38 in 10.0 mi SW 6.9 mph - 0.00 in   Overcast
7:53 AM -6.0 °F -18.6 °F -8.0 °F 91% 30.37 in 6.0 mi South 5.8 mph - 0.00 in   Overcast
8:53 AM -7.1 °F -25.9 °F -9.9 °F 87% 30.36 in 6.0 mi SSW 11.5 mph - N/A   Overcast
9:15 AM -7.6 °F -26.6 °F -9.4 °F 92% 30.35 in 2.0 mi SSW 11.5 mph - N/A   Overcast
9:28 AM -7.6 °F -26.6 °F -9.4 °F 92% 30.35 in 1.5 mi South 11.5 mph - N/A   Overcast
9:41 AM -7.6 °F -25.7 °F -11.2 °F 84% 30.35 in 2.5 mi SSW 10.4 mph - N/A   Overcast
9:51 AM -7.6 °F -25.7 °F -11.2 °F 84% 30.35 in 3.0 mi SSW 10.4 mph - N/A   Overcast
9:53 AM -8.0 °F -26.1 °F -11.0 °F 86% 30.36 in 3.0 mi SSW 10.4 mph - N/A   Overcast
10:07 AM -7.6 °F -25.7 °F -11.2 °F 84% 30.35 in 2.5 mi SSW 10.4 mph - N/A   Overcast
10:16 AM -7.6 °F -25.7 °F -9.4 °F 92% 30.35 in 3.0 mi SSW 10.4 mph - N/A   Overcast
10:51 AM -7.6 °F -25.7 °F -9.4 °F 92% 30.34 in 6.0 mi SSW 10.4 mph - N/A   Overcast
10:53 AM -7.1 °F -25.0 °F -9.9 °F 87% 30.35 in 6.0 mi SSW 10.4 mph - N/A   Overcast
12:03 PM -4.0 °F -20.2 °F -7.6 °F 85% 30.32 in 7.0 mi SSW 9.2 mph - N/A   Overcast
12:53 PM -2.9 °F -19.8 °F -6.0 °F 87% 30.32 in 6.0 mi SSW 10.4 mph - N/A   Overcast
2:01 PM -2.2 °F -18.9 °F -5.8 °F 85% 30.30 in 2.5 mi SSW 10.4 mph - 0.00 in Snow Light Snow
2:14 PM -2.2 °F -18.0 °F -5.8 °F 85% 30.30 in 3.0 mi SSW 9.2 mph - 0.00 in Snow Light Snow
2:51 PM -0.4 °F -15.7 °F -5.8 °F 78% 30.29 in 2.5 mi SSW 9.2 mph - 0.00 in Snow Light Snow
2:53 PM -0.9 °F -17.4 °F -5.1 °F 83% 30.30 in 3.0 mi SSW 10.4 mph - 0.00 in Snow Light Snow
3:03 PM -0.4 °F -14.7 °F -5.8 °F 78% 30.29 in 1.8 mi SSW 8.1 mph - 0.00 in Snow Light Snow
3:10 PM -0.4 °F -15.7 °F -4.0 °F 85% 30.29 in 3.0 mi SSW 9.2 mph - 0.00 in Snow Light Snow
3:17 PM -0.4 °F -14.7 °F -4.0 °F 85% 30.29 in 2.0 mi SSW 8.1 mph - 0.00 in Snow Light Snow
3:38 PM -0.4 °F -12.0 °F -5.8 °F 78% 30.29 in 3.0 mi SSE 5.8 mph - 0.00 in Snow Light Snow
3:46 PM -0.4 °F -12.0 °F -5.8 °F 78% 30.29 in 1.8 mi South 5.8 mph - 0.00 in Snow Light Snow
3:53 PM -2.0 °F -15.4 °F -5.1 °F 87% 30.30 in 1.8 mi South 6.9 mph - 0.00 in Snow Light Snow
4:00 PM -2.2 °F -18.0 °F -5.8 °F 85% 30.29 in 2.0 mi South 9.2 mph - 0.00 in Snow Light Snow
4:07 PM -2.2 °F -18.0 °F -5.8 °F 85% 30.29 in 1.8 mi South 9.2 mph - 0.00 in Snow Light Snow
4:11 PM -2.2 °F -18.0 °F -5.8 °F 85% 30.29 in 3.0 mi South 9.2 mph - 0.00 in Snow Light Snow
4:53 PM -4.0 °F -20.2 °F -7.1 °F 87% 30.30 in 6.0 mi South 9.2 mph - 0.00 in   Overcast
5:04 PM -4.0 °F -19.0 °F -7.6 °F 85% 30.29 in 1.8 mi South 8.1 mph - 0.00 in Snow Light Snow
5:22 PM -4.0 °F -17.8 °F -7.6 °F 85% 30.29 in 2.5 mi South 6.9 mph - 0.00 in Snow Light Snow
5:29 PM -4.0 °F -17.8 °F -7.6 °F 85% 30.29 in 4.0 mi South 6.9 mph - 0.00 in Snow Light Snow
5:48 PM -2.2 °F -15.6 °F -7.6 °F 78% 30.29 in 2.0 mi South 6.9 mph - 0.00 in Snow Light Snow
5:53 PM -2.9 °F -16.5 °F -7.1 °F 82% 30.30 in 2.5 mi South 6.9 mph - 0.00 in Snow Light Snow
7:29 PM -2.2 °F -12.5 °F -5.8 °F 85% 30.30 in 3.0 mi SSW 4.6 mph - 0.00 in Snow Light Snow
7:48 PM -2.2 °F -12.5 °F -5.8 °F 85% 30.30 in 2.5 mi SSW 4.6 mph - 0.00 in Snow Light Snow
7:53 PM -2.0 °F -10.1 °F -5.1 °F 87% 30.30 in 2.5 mi SSW 3.5 mph - 0.00 in Snow Light Snow
8:07 PM -2.2 °F -10.4 °F -5.8 °F 85% 30.30 in 3.0 mi SW 3.5 mph - 0.00 in Snow Light Snow
8:53 PM -4.0 °F -16.3 °F -7.1 °F 87% 30.30 in 5.0 mi South 5.8 mph - 0.00 in   Overcast